[[{"header":{"parameterUnit":"m.s-1","parameterCategory":1,"la1":30.2992,"la2":30.254,"lo1":-89.0895,"lo2":-89.0443,"dy":0.0025,"dx":0.0025,"nx":19,"ny":19,"refTime":"2026-04-03T21:00:00:Z","depth":0,"parameterNumber":2,"parameterNumberName":"U-component_of_WINDS"},"data":[0,0,0,-2.5177,-2.5178,-2.5247,-2.5247,-2.5324,-2.5325,0,0,0,0,0,0,0,0,0,0,0,-2.5153,-2.5153,-2.5177,-2.5179,-2.5247,-2.5247,-2.5324,-2.5325,0,0,0,0,0,0,0,0,0,0,0,-2.5153,-2.5153,-2.5154,-2.5179,-2.5247,-2.5247,-2.5324,-2.5276,0,0,0,0,0,0,0,0,0,0,-2.521,-2.5185,-2.5153,-2.5154,-2.5179,-2.5247,-2.5247,-2.5273,-2.5279,-2.529,0,-2.5301,0,-2.5315,-2.533,-2.533,0,0,0,-2.518,-2.5181,-2.5203,-2.5154,-2.518,-2.5247,-2.5217,-2.5276,-2.5282,-2.5297,-2.5303,-2.5306,-2.5316,-2.533,-2.5331,-2.5397,-2.5397,0,0,-2.5177,-2.5162,-2.5199,-2.5207,-2.5199,-2.5214,-2.5219,-2.528,-2.5284,-2.5303,-2.5308,-2.5317,-2.5331,-2.5331,-2.5397,-2.5397,0,0,0,-2.5164,-2.516,-2.5181,-2.5204,-2.5217,-2.5216,-2.5221,-2.5281,-2.529,-2.5308,-2.5318,-2.5331,-2.5332,-2.5397,-2.5397,-2.5395,0,0,0,-2.5162,-2.5153,-2.5179,-2.5171,-2.5216,-2.5251,-2.5221,-2.5285,-2.5293,-2.5318,-2.5331,-2.5333,-2.5396,-2.5397,-2.5395,-2.5396,0,0,0,-2.515,-2.5151,-2.516,-2.517,-2.5199,-2.525,-2.5262,-2.5287,-2.5299,-2.533,-2.5333,-2.5396,-2.5397,-2.5394,-2.5395,-2.5409,0,0,0,-2.5131,-2.5156,-2.516,-2.5191,-2.5199,-2.525,-2.5262,-2.5299,-2.5326,-2.5332,-2.5396,-2.5397,-2.5394,-2.5395,-2.5409,-2.5418,-2.5421,0,0,-2.5154,-2.5158,-2.5177,-2.5183,-2.5231,-2.524,-2.5286,-2.5322,-2.5336,-2.5375,-2.5377,-2.5395,-2.5395,-2.5409,-2.5445,-2.5447,0,0,0,-2.518,-2.5194,-2.5209,-2.5236,-2.5267,-2.5293,-2.5324,-2.5338,-2.5372,-2.5355,-2.5405,-2.5405,-2.5414,-2.5419,-2.5421,-2.5429,-2.5399,-2.5399,-2.5399,-2.5189,-2.521,-2.5244,-2.5273,-2.5299,-2.5333,-2.5354,-2.5378,-2.5388,-2.54,-2.5411,-2.5431,-2.5436,-2.5438,-2.5446,-2.5419,-2.5419,-2.5419,-2.5419,-2.5224,-2.5247,-2.5264,-2.5303,-2.5323,-2.5355,-2.5389,-2.5395,-2.5426,-2.5423,-2.5432,-2.5426,-2.544,-2.5448,-2.5419,-2.5419,-2.5419,-2.5419,-2.5419,-2.5232,-2.5246,-2.5265,-2.5308,-2.5338,-2.5366,-2.5396,-2.5413,-2.5429,-2.5437,-2.5451,-2.5451,-2.5452,-2.5443,-2.5443,-2.5443,-2.5443,-2.5443,-2.5443,-2.5232,-2.5254,-2.5279,-2.5316,-2.5337,-2.5365,-2.5401,-2.542,-2.5446,-2.5456,-2.5456,-2.5464,-2.5438,-2.5431,-2.5444,-2.5444,-2.5444,-2.5444,-2.5444,-2.5257,-2.5255,-2.5294,-2.5315,-2.536,-2.5389,-2.5412,-2.545,-2.5469,-2.5483,-2.5491,-2.5469,-2.5473,-2.5472,-2.5465,-2.5487,-2.5487,-2.5487,-2.5487,-2.5263,-2.5268,-2.5313,-2.5345,-2.5379,-2.5404,-2.5445,-2.5474,-2.5501,-2.5514,-2.5513,-2.5507,-2.5505,-2.551,-2.5508,-2.5502,-2.5533,-2.5533,-2.5533,-2.5279,-2.5289,-2.5322,-2.5354,-2.5391,-2.5422,-2.5461,-2.5495,-2.5526,-2.5535,-2.5523,-2.5521,-2.5512,-2.5508,-2.5514,-2.551,-2.55,0,0]},{"header":{"parameterUnit":"m.s-1","parameterCategory":1,"la1":30.2992,"la2":30.254,"lo1":-89.0895,"lo2":-89.0443,"dy":0.0025,"dx":0.0025,"nx":19,"ny":19,"refTime":"2026-04-03T21:00:00:Z","depth":0,"parameterNumber":3,"parameterNumberName":"V-component_of_WINDS"},"data":[0,0,0,2.3199,2.32,2.3258,2.3258,2.3357,2.3358,0,0,0,0,0,0,0,0,0,0,0,2.3197,2.3198,2.3199,2.3201,2.3258,2.3258,2.3357,2.3358,0,0,0,0,0,0,0,0,0,0,0,2.3197,2.3198,2.32,2.3201,2.3258,2.3258,2.3357,2.3304,0,0,0,0,0,0,0,0,0,0,2.3244,2.3258,2.3198,2.32,2.3201,2.3258,2.3258,2.3301,2.3308,2.3342,0,2.3377,0,2.3369,2.3367,2.3367,0,0,0,2.3189,2.3253,2.3254,2.32,2.3202,2.3258,2.3229,2.3305,2.3312,2.3351,2.3378,2.3381,2.3371,2.3367,2.3368,2.3601,2.3603,0,0,2.3186,2.3216,2.3249,2.3259,2.3252,2.3227,2.3231,2.3308,2.3341,2.3378,2.3383,2.3372,2.3368,2.3369,2.36,2.3602,0,0,0,2.3185,2.3215,2.3213,2.3256,2.3264,2.3229,2.3233,2.3337,2.3334,2.3383,2.3373,2.3369,2.337,2.3598,2.3601,2.371,0,0,0,2.3182,2.3214,2.3213,2.3232,2.3263,2.3301,2.3261,2.3329,2.3336,2.3373,2.3369,2.3372,2.3596,2.3599,2.3703,2.3757,0,0,0,2.3188,2.3214,2.3228,2.3233,2.3259,2.3299,2.33,2.3329,2.3331,2.3367,2.3372,2.3595,2.3599,2.3697,2.3747,2.3827,0,0,0,2.3204,2.3325,2.323,2.3361,2.3259,2.3366,2.33,2.3378,2.3422,2.337,2.3596,2.36,2.3695,2.3741,2.3821,2.3901,2.3937,0,0,2.3374,2.3347,2.3421,2.3337,2.3469,2.3354,2.3502,2.3515,2.3491,2.3566,2.3571,2.3705,2.3746,2.3826,2.4125,2.4154,0,0,0,2.3485,2.354,2.3568,2.361,2.3621,2.3634,2.362,2.3624,2.3686,2.3535,2.3754,2.3778,2.3823,2.386,2.3885,2.3922,2.3618,2.3618,2.3618,2.3772,2.3732,2.3852,2.382,2.3862,2.3844,2.3874,2.3877,2.3827,2.3879,2.3902,2.4088,2.4133,2.4151,2.419,2.394,2.394,2.394,2.3941,2.4017,2.4088,2.4015,2.4106,2.4064,2.414,2.4127,2.4088,2.4153,2.4068,2.4107,2.4019,2.4184,2.4216,2.3949,2.3947,2.3946,2.3946,2.3945,2.4202,2.4229,2.4229,2.4284,2.4331,2.4293,2.4358,2.4317,2.4279,2.4317,2.4336,2.4334,2.4328,2.4328,2.4329,2.433,2.433,2.4331,2.4331,2.4394,2.4391,2.445,2.4469,2.4489,2.4511,2.4491,2.4511,2.4521,2.4487,2.4487,2.4432,2.4206,2.4151,2.4341,2.4339,2.4338,2.4337,2.4336,2.4661,2.4593,2.4685,2.4705,2.4722,2.4771,2.4716,2.4758,2.4767,2.48,2.4736,2.4575,2.4545,2.4525,2.448,2.4743,2.4743,2.4743,2.4743,2.4818,2.4797,2.488,2.4915,2.4944,2.4902,2.5007,2.4992,2.4967,2.497,2.4925,2.486,2.4842,2.4823,2.4797,2.4754,2.5081,2.5081,2.5081,2.4981,2.496,2.5058,2.5029,2.5039,2.5048,2.5145,2.5187,2.5144,2.5094,2.4972,2.4958,2.4852,2.482,2.4771,2.4731,2.4651,0,0]}]]